(2008 GM2) |
Classification: Apollo [NEO] SPK-ID: 3408244 |
[ hide orbit diagram ]
For accurate long-term ephemerides, please instead use our Horizons system.This orbit viewer was implemented using two-body methods, and hence should not be used for determining accurate long-term trajectories (over several years or decades) or planetary encounter circumstances.
Orbital Elements at Epoch 2459000.5 (2020-May-31.0) TDB
Reference: JPL 12 (heliocentric ecliptic J2000)
Element | Value | Uncertainty (1-sigma) | Units |
e | .1573895795313593 | 5.4363e-05 | |
a | 1.052012412344832 | 2.7356e-05 | au |
q | .8864366211041075 | 3.4164e-05 | au |
i | 4.099010166973725 | 0.0015358 | deg |
node | 195.074661075661 | 0.00026638 | deg |
peri | 278.3049284219745 | 0.00035369 | deg |
M | 159.5303671092792 | 0.17433 | deg |
tp | 2458825.849197058783 (2019-Dec-08.34919706) | 0.18404 | TDB |
period | 394.1211331618689 1.08 | 0.015373 4.209e-05 | d yr |
n | .9134247562719376 | 3.5628e-05 | deg/d |
Q | 1.217588203585556 | 3.1661e-05 | au |
|
| | Orbit Determination Parameters
Additional Information
|
[ show covariance matrix ]
Physical Parameter Table
Parameter |
Symbol |
Value |
Units |
Sigma |
Reference |
Notes |
absolute magnitude |
H |
28.3 |
|
n/a |
MPO138179 |
|
|
[ show close-approach data ]
|